Wind_Speed
36 37 38 39 40 40 41 41 41 40 40 41 42 42 42 42 42 42 42 42 43 43 42 42 42 42 40 40 40 40 39 39 39 39 40 39 40 40
37 38 38 39 39 40 40 41 41 41 41 41 41 42 42 42 42 42 43 43 43 43 43 42 42 41 40 40 40 39 39 39 40 40 39 39 39 40
39 39 39 39 39 40 40 41 42 42 42 42 42 42 42 42 42 42 42 42 42 42 42 41 41 41 41 41 40 39 38 38 38 38 39 40 39 39
40 39 39 39 39 40 40 40 41 42 42 41 41 41 41 41 41 42 41 41 42 41 41 41 41 41 41 41 40 39 38 38 38 39 40 40 40 40
40 40 40 39 39 40 40 41 41 42 42 42 41 41 41 41 41 41 41 41 41 41 41 41 41 41 41 40 40 39 38 38 39 40 40 40 40 41
40 40 40 40 40 40 40 41 41 41 41 42 42 42 42 42 42 41 41 41 40 41 41 41 41 41 41 40 40 39 39 39 40 40 40 40 41 41
41 40 40 40 40 40 40 40 41 41 42 42 43 43 43 43 43 42 42 42 41 41 41 41 41 41 40 40 40 40 40 41 41 40 40 41 41 42
42 41 41 40 40 40 40 41 42 42 43 43 42 42 42 42 42 42 42 42 42 41 41 41 41 40 40 40 40 41 41 41 41 41 41 42 42 42
43 42 42 42 42 42 42 42 42 43 43 43 42 41 42 42 42 42 42 42 42 42 42 41 41 41 41 40 40 40 40 41 41 42 42 43 44 44
44 44 44 44 44 43 43 43 43 43 43 42 42 42 42 42 43 43 43 43 42 42 42 41 41 41 41 40 40 40 40 40 41 42 43 44 44 44
45 45 44 44 44 44 43 42 42 42 43 43 42 42 42 43 43 43 44 44 44 43 43 42 41 41 41 40 40 40 41 41 42 42 42 42 42 42
45 45 45 45 45 44 43 43 42 42 42 42 42 42 43 43 43 44 44 44 44 43 42 42 42 41 40 40 40 40 41 41 42 42 42 42 42 41
47 46 46 46 46 45 44 44 43 43 43 42 43 43 43 43 44 44 44 44 44 43 43 42 42 41 41 40 39 40 41 41 41 42 43 42 42 41
47 47 47 47 46 45 44 44 44 44 44 43 43 43 44 44 45 45 45 44 44 43 43 43 42 41 41 40 40 41 41 42 41 41 41 41 40 40
47 47 47 47 47 46 45 44 44 44 44 45 44 44 45 45 44 44 44 43 43 42 42 42 41 41 40 41 40 40 40 40 40 40 40 39 39 38
48 48 48 48 47 46 45 44 44 45 45 44 44 44 44 44 43 43 43 42 41 41 40 40 40 40 39 39 39 38 38 38 38 38 38 38 38 37
48 48 48 47 46 46 45 44 44 44 44 44 43 43 43 43 42 42 41 41 40 39 38 38 38 38 38 38 37 37 38 37 37 37 36 36 36 35
48 48 47 46 46 45 45 44 44 43 43 42 42 41 41 41 41 40 39 38 37 37 37 36 36 36 36 35 36 36 36 36 36 35 35 35 34 35
46 45 45 44 44 44 43 43 42 41 40 40 40 39 39 39 38 38 37 36 35 35 35 35 35 35 35 34 33 34 34 34 33 33 33 34 33 32
43 42 41 41 41 41 41 40 39 38 38 38 38 37 37 37 37 36 35 35 34 33 33 33 33 33 33 32 31 32 33 33 32 32 32 32 31 31
40 39 38 37 37 37 37 37 36 36 36 36 35 35 35 35 34 33 33 33 32 32 31 31 31 31 31 31 31 31 32 32 32 32 31 31 30 29
38 37 36 36 35 35 35 34 34 34 34 33 33 33 32 31 31 31 31 31 30 30 30 30 30 30 30 30 30 30 31 31 31 31 30 30 29 27
36 36 35 34 34 34 33 33 33 32 32 32 31 31 30 30 30 30 30 30 29 29 29 29 30 30 30 29 29 29 29 29 29 28 27 27 27 26
Wind_Direction
277 277 275 274 273 272 271 272 271 271 272 273 274 275 276 276 277 277 277 278 280 281 282 284 285 284 284 284 284 284 282 281 280 281 283 284 284 284
276 276 276 275 274 274 274 273 273 273 274 275 276 277 277 277 277 277 278 278 279 281 282 282 283 284 284 284 285 284 282 281 281 281 281 282 284 284
276 276 277 277 276 275 274 273 273 274 275 275 277 278 277 277 277 278 278 279 280 281 281 281 282 283 284 284 284 284 283 282 282 282 283 283 284 284
276 276 276 276 276 275 274 273 274 274 275 276 276 277 277 277 279 279 279 279 280 281 281 280 281 282 283 283 283 283 282 282 282 283 284 284 284 285
276 276 276 276 276 275 274 274 274 274 274 275 276 276 277 278 279 279 280 280 281 281 281 281 281 281 282 282 282 281 282 282 283 284 285 284 286 286
275 276 276 276 276 275 275 274 273 273 274 275 276 276 277 278 278 279 280 281 282 282 283 283 282 281 281 281 281 281 281 282 284 285 285 285 286 286
275 276 276 276 276 276 275 274 274 274 275 275 276 276 276 277 278 279 280 280 282 283 283 283 284 283 282 280 280 280 280 282 284 285 285 285 286 286
274 275 275 276 276 276 275 275 275 275 275 275 275 276 276 277 277 279 279 280 281 282 282 283 284 284 283 282 281 280 281 282 284 285 285 286 286 286
272 272 274 275 275 276 276 276 276 275 275 275 275 275 276 276 277 277 279 280 281 281 281 282 283 284 284 283 282 281 282 283 284 285 286 287 288 288
271 271 272 273 274 274 275 275 276 276 275 275 275 276 277 277 278 278 278 279 280 281 282 281 281 283 283 282 282 282 282 283 284 286 287 288 288 288
270 270 270 271 272 273 274 274 274 274 274 274 274 275 276 277 278 277 278 278 279 280 281 281 281 282 282 281 282 282 282 283 284 286 288 289 290 290
269 269 270 270 271 272 272 272 273 273 273 273 274 275 276 276 277 277 278 278 279 280 281 282 282 282 282 282 282 283 283 284 285 286 288 289 290 290
267 268 269 270 270 271 271 271 271 271 272 273 274 275 277 278 278 279 279 280 280 281 281 281 282 282 282 282 282 283 284 284 285 287 288 289 289 289
267 268 268 269 270 270 270 270 270 271 271 272 274 275 276 277 279 280 280 280 281 281 281 281 281 281 281 281 282 283 284 284 285 287 289 289 288 289
266 267 267 268 269 269 269 269 269 270 271 272 273 275 276 277 278 279 280 280 280 280 281 281 281 281 282 282 283 283 284 285 285 287 288 288 288 289
266 266 266 267 267 267 268 268 269 271 271 271 272 273 275 276 278 279 280 280 280 280 280 280 281 282 283 283 284 284 285 286 286 287 288 289 290 289
265 265 265 265 266 267 267 268 269 271 272 272 272 273 274 275 276 277 279 279 279 279 279 280 281 282 283 284 284 285 286 286 288 288 288 290 290 290
265 264 264 264 265 265 266 267 268 270 271 272 272 272 273 274 275 276 278 278 279 280 280 280 281 281 282 283 284 285 286 287 288 288 289 290 291 291
265 264 264 264 264 264 265 266 268 268 270 271 271 272 273 273 274 275 276 277 278 279 280 280 281 281 282 283 284 285 287 288 289 289 290 290 292 292
265 264 264 264 264 263 264 265 265 266 268 270 271 271 272 273 273 274 275 275 277 278 279 279 280 281 282 283 285 285 287 289 290 290 291 291 291 292
263 263 263 263 262 263 263 263 264 265 267 268 269 271 272 272 272 273 274 275 276 277 279 279 280 282 283 284 285 286 288 290 291 292 291 291 291 291
262 262 262 261 261 261 261 261 262 263 264 266 268 270 271 271 272 272 273 275 276 278 279 279 279 282 283 285 286 288 290 291 292 293 292 292 292 291
260 260 260 260 259 259 259 259 260 261 262 264 266 269 270 271 272 272 273 274 276 277 278 279 280 281 283 285 287 289 290 292 293 292 292 292 292 292
Height
5697 5697 5697 5697 5697 5697 5697 5698 5699 5700 5701 5700 5699 5698 5696 5696 5695 5694 5694 5693 5692 5690 5689 5687 5686 5684 5682 5680 5678 5677 5675 5674 5673 5671 5670 5669 5668 5666
5688 5688 5688 5687 5687 5687 5688 5688 5688 5689 5690 5690 5688 5687 5686 5685 5684 5683 5683 5682 5681 5679 5678 5677 5675 5673 5672 5670 5668 5666 5665 5663 5662 5661 5660 5659 5657 5655
5679 5679 5678 5678 5678 5677 5677 5678 5678 5678 5679 5679 5677 5676 5675 5674 5673 5672 5672 5671 5670 5668 5667 5666 5664 5663 5661 5660 5658 5656 5655 5654 5652 5651 5650 5648 5646 5645
5669 5669 5669 5668 5668 5668 5667 5667 5668 5668 5668 5668 5667 5666 5665 5664 5663 5662 5661 5660 5659 5658 5656 5655 5653 5652 5651 5649 5648 5646 5645 5644 5642 5641 5640 5638 5636 5634
5659 5659 5659 5658 5658 5657 5657 5657 5657 5657 5657 5657 5656 5655 5655 5654 5653 5652 5651 5650 5648 5647 5646 5644 5642 5641 5640 5639 5637 5636 5635 5634 5632 5631 5629 5627 5625 5623
5648 5648 5648 5648 5647 5647 5646 5646 5646 5646 5646 5646 5645 5645 5644 5643 5642 5642 5641 5639 5638 5637 5635 5633 5632 5630 5629 5628 5626 5625 5624 5623 5621 5620 5618 5616 5614 5612
5637 5637 5637 5637 5636 5636 5635 5635 5635 5635 5635 5635 5634 5634 5633 5632 5632 5631 5631 5629 5628 5626 5624 5622 5621 5619 5618 5616 5615 5614 5613 5611 5610 5608 5606 5604 5602 5600
5625 5626 5625 5625 5625 5625 5624 5624 5624 5624 5623 5623 5623 5623 5622 5621 5621 5620 5619 5618 5617 5616 5614 5612 5610 5608 5607 5605 5604 5603 5601 5600 5598 5596 5594 5592 5590 5587
5613 5613 5614 5614 5613 5613 5613 5612 5612 5612 5612 5612 5612 5611 5610 5610 5609 5609 5608 5606 5605 5604 5602 5602 5599 5598 5596 5594 5593 5591 5590 5588 5586 5584 5582 5580 5577 5574
5601 5601 5601 5601 5601 5601 5601 5601 5601 5600 5600 5600 5600 5600 5599 5598 5597 5597 5596 5595 5594 5592 5590 5590 5589 5587 5585 5583 5581 5580 5578 5576 5574 5572 5570 5567 5565 5562
5588 5588 5589 5589 5589 5589 5589 5589 5589 5589 5588 5588 5588 5588 5587 5586 5585 5584 5583 5582 5582 5581 5579 5578 5577 5575 5574 5573 5570 5568 5566 5564 5562 5560 5557 5555 5552 5549
5574 5575 5575 5576 5576 5576 5576 5577 5577 5577 5576 5576 5576 5575 5575 5574 5572 5572 5571 5570 5569 5569 5567 5566 5564 5562 5562 5562 5559 5556 5554 5552 5550 5547 5545 5542 5539 5537
5560 5561 5562 5562 5562 5563 5563 5564 5564 5564 5564 5564 5564 5563 5562 5561 5560 5559 5558 5557 5557 5556 5555 5553 5552 5550 5549 5549 5547 5545 5542 5540 5537 5535 5532 5529 5526 5524
5546 5547 5548 5548 5549 5549 5549 5550 5550 5551 5551 5551 5551 5551 5550 5549 5548 5547 5545 5544 5544 5543 5541 5540 5539 5538 5536 5535 5535 5533 5530 5527 5525 5522 5520 5517 5514 5511
5531 5532 5533 5534 5534 5535 5536 5536 5537 5537 5538 5538 5538 5538 5537 5536 5535 5534 5533 5532 5531 5530 5528 5527 5526 5525 5524 5523 5522 5520 5518 5516 5513 5510 5508 5505 5502 5500
5515 5516 5518 5519 5520 5521 5522 5522 5523 5523 5524 5524 5524 5524 5523 5523 5522 5522 5521 5519 5519 5518 5516 5514 5513 5512 5512 5510 5509 5507 5505 5503 5501 5498 5496 5493 5490 5488
5499 5500 5502 5504 5505 5506 5507 5508 5509 5510 5510 5510 5510 5510 5510 5510 5510 5509 5508 5507 5507 5506 5505 5503 5501 5500 5499 5498 5497 5496 5494 5492 5489 5487 5484 5482 5479 5476
5483 5485 5487 5489 5490 5492 5493 5494 5495 5496 5496 5496 5497 5497 5497 5497 5497 5497 5496 5496 5495 5494 5493 5492 5491 5490 5489 5488 5487 5485 5483 5481 5478 5476 5474 5471 5468 5465
5467 5470 5472 5474 5476 5477 5479 5480 5481 5482 5483 5483 5484 5484 5485 5485 5485 5485 5484 5484 5483 5483 5482 5481 5480 5479 5478 5478 5477 5474 5472 5470 5468 5466 5463 5461 5458 5455
5453 5455 5458 5460 5462 5463 5465 5466 5468 5469 5470 5471 5472 5472 5473 5473 5473 5473 5473 5473 5473 5472 5471 5470 5469 5468 5467 5467 5466 5464 5461 5459 5458 5456 5453 5451 5448 5445
5440 5443 5445 5447 5449 5451 5452 5454 5455 5457 5458 5460 5461 5461 5462 5462 5462 5462 5463 5462 5462 5462 5461 5461 5459 5458 5457 5456 5456 5454 5452 5450 5448 5446 5443 5441 5439 5437
5428 5431 5433 5435 5437 5439 5440 5442 5444 5446 5447 5449 5450 5450 5451 5451 5452 5452 5452 5453 5452 5452 5452 5451 5450 5449 5448 5447 5446 5445 5443 5441 5438 5436 5433 5431 5429 5427
5416 5419 5421 5423 5426 5428 5429 5431 5433 5435 5437 5438 5439 5440 5441 5441 5442 5442 5443 5443 5443 5443 5442 5442 5441 5440 5439 5438 5437 5435 5433 5432 5429 5427 5425 5422 5420 5418